[[{"header":{"parameterUnit":"m.s-1","parameterCategory":1,"la1":30.2991,"la2":30.254,"lo1":-89.0895,"lo2":-89.0444,"dy":0.0017,"dx":0.0017,"nx":28,"ny":28,"refTime":"2024-06-05T09:00:00:Z","depth":0,"parameterNumber":2,"parameterNumberName":"U-component_of_WINDS"},"data":[0,0,0,0,0,0,0,0,0,0,0,0,0,0,0,0,0,0,0,0,0,0,0,0,0,0,0,0,0,0,0,0,0,0,0,0,0,0,0,0,0,0,0,0,0,0,0,0,0,0,0,0,0,0,0,0,0,0,3.7136,3.7138,0,3.7282,3.7284,3.7286,3.727,3.7267,3.7265,3.7263,3.7416,3.7422,3.7428,0,0,0,0,0,0,0,0,0,0,0,0,0,3.6844,3.6849,3.7136,3.7138,3.714,3.7282,3.7284,3.7286,3.727,3.7267,3.7264,3.7262,3.7413,3.7421,3.7428,0,0,0,0,0,0,0,0,0,0,0,0,0,3.6979,3.6851,3.7136,3.7149,3.7151,3.7282,3.7284,3.7287,3.7271,3.7267,3.7264,3.726,3.7411,3.742,3.7429,3.7557,0,0,3.7458,3.7462,0,0,0,0,0,0,0,0,3.6971,3.6989,3.7145,3.7148,3.7151,3.7254,3.7237,3.7377,3.7272,3.7225,3.7263,3.7259,3.7365,3.7378,3.7413,3.7564,3.7571,3.7459,3.7464,3.7468,3.7471,0,0,0,0,0,0,0,3.6962,3.6983,3.7194,3.7147,3.7151,3.7148,3.7163,3.7264,3.7313,3.7229,3.7228,3.7246,3.7366,3.7404,3.7416,3.7573,3.7458,3.7467,3.7473,3.7476,3.7835,3.7838,0,0,0,0,0,0,3.6949,3.6975,3.7189,3.7198,3.705,3.7156,3.7173,3.7225,3.7312,3.7322,3.7249,3.7245,3.739,3.7406,3.7422,3.7576,3.7468,3.7477,3.7482,3.7831,3.7835,3.784,0,0,0,0,0,0,3.6943,3.6968,3.7183,3.7087,3.7114,3.7164,3.7223,3.7229,3.7267,3.7326,3.7335,3.7278,3.7388,3.7409,3.7523,3.7581,3.7481,3.749,3.7826,3.7832,3.7838,3.7886,0,0,0,0,0,0,3.6934,3.6966,3.7015,3.7088,3.7119,3.7282,3.7226,3.7235,3.7283,3.7279,3.7357,3.7366,3.7386,3.7509,3.7532,3.7592,3.7497,3.7821,3.7829,3.7836,3.7879,3.7893,3.7904,0,0,0,0,0,3.6924,3.7023,3.7017,3.7043,3.7181,3.7285,3.7303,3.7323,3.7288,3.7338,3.7375,3.7364,3.7571,3.7521,3.7547,3.761,3.7818,3.7827,3.7835,3.7874,3.789,3.7904,0,0,0,0,0,0,3.6957,3.7033,3.7027,3.7153,3.7213,3.7282,3.7345,3.734,3.7412,3.7405,3.7428,3.7446,3.7561,3.7597,3.754,3.7738,3.7689,3.7704,3.771,3.7726,3.7738,3.7727,3.7505,0,0,0,0,0,3.6979,3.7056,3.7119,3.7224,3.7254,3.7295,3.7341,3.7351,3.7414,3.744,3.7486,3.7548,3.7627,3.7678,3.7754,3.7884,3.7901,3.7941,3.7953,3.7963,3.7975,3.8045,3.8064,3.7869,3.7869,3.7868,0,0,3.7025,3.7076,3.7124,3.7232,3.7279,3.736,3.7316,3.7403,3.7463,3.7453,3.7563,3.7599,3.767,3.7792,3.7849,3.7826,3.8032,3.7974,3.7982,3.7989,3.8056,3.8075,3.8091,3.7875,3.7873,3.7873,0,0,3.715,3.7197,3.7289,3.7337,3.7408,3.7434,3.7456,3.7527,3.755,3.766,3.7654,3.7726,3.7862,3.7912,3.7955,3.8097,3.8089,3.8122,3.8186,3.8255,3.827,3.8284,3.8334,3.8351,3.8134,3.8134,3.8134,0,3.7199,3.7319,3.7337,3.7425,3.7472,3.7465,3.7559,3.7604,3.7698,3.7731,3.7704,3.7873,3.792,3.8054,3.8088,3.8124,3.8149,3.8113,3.8266,3.828,3.8293,3.8341,3.836,3.8137,3.8137,3.8136,3.8136,0,3.7374,3.7458,3.7523,3.7612,3.7667,3.7757,3.7789,3.7843,3.7848,3.7877,3.7989,3.8045,3.8132,3.8164,3.8171,3.8299,3.8282,3.8261,3.8213,3.8315,3.836,3.8379,3.8142,3.8141,3.814,3.8139,0,0,3.7525,3.7622,3.7645,3.7685,3.7763,3.7828,3.7917,3.8001,3.8046,3.811,3.8185,3.8299,3.8279,3.8328,3.8341,3.8401,3.8508,3.8372,3.8374,3.8394,3.8651,3.8667,3.8688,3.8503,3.8507,3.851,3.8645,0,3.7657,3.7815,3.7833,3.7973,3.805,3.8044,3.8122,3.8178,3.8207,3.8277,3.8309,3.8389,3.8357,3.8387,3.8446,3.8483,3.856,3.8473,3.8574,3.8577,3.8556,3.8712,3.8728,3.8853,3.8663,3.8666,3.8668,0,3.7833,3.79,3.8048,3.8113,3.8146,3.8216,3.8293,3.836,3.8423,3.844,3.8494,3.8498,3.859,3.8538,3.8666,3.8606,3.8648,3.8673,3.8678,3.8688,3.8629,3.8725,3.8894,3.8912,3.8697,3.8694,3.8692,0,3.7927,3.8055,3.8159,3.8193,3.8273,3.8322,3.8357,3.8417,3.8466,3.8534,3.8565,3.8643,3.8686,3.8746,3.8771,3.8731,3.8897,3.8847,3.8914,3.8913,3.8949,3.8946,3.9126,3.8977,3.8977,3.8976,3.8976,0,3.8073,3.8163,3.8202,3.8267,3.8367,3.8388,3.8487,3.8521,3.8574,3.8644,3.8644,3.8711,3.874,3.8811,3.8831,3.8933,3.8953,3.8969,3.8973,3.8969,3.8966,3.8996,3.8988,3.8981,3.898,3.8979,3.8978,0,3.8195,3.8225,3.8338,3.8404,3.8422,3.8494,3.855,3.8612,3.8639,3.8729,3.8751,3.8795,3.8878,3.8909,3.9011,3.9024,3.9142,3.9139,3.912,3.9121,3.9185,3.9178,3.939,3.9418,3.9251,3.9253,3.9254,0,3.8286,3.8355,3.8427,3.8473,3.851,3.8586,3.8635,3.8657,3.8708,3.8785,3.8838,3.892,3.8987,3.9121,3.9162,3.924,3.9239,3.9308,3.9251,3.9243,3.9239,3.9234,3.9241,3.9318,3.932,3.9321,3.9322,0,3.8443,3.8454,3.8524,3.8599,3.8657,3.8718,3.8777,3.8815,3.8846,3.8904,3.8988,3.904,3.9143,3.9225,3.9304,3.9341,3.9337,3.934,3.9359,3.9355,3.9341,3.9348,3.9148,3.9335,3.9334,3.9333,3.9332,3.9332,3.8552,3.8612,3.8672,3.875,3.8796,3.885,3.8911,3.8946,3.9016,3.9101,3.911,3.9201,3.9262,3.9367,3.9408,3.9479,3.9461,3.9489,3.9496,3.9502,3.9506,3.9329,3.9494,3.9494,3.9493,3.9493,3.9493,0,3.8708,3.8746,3.8817,3.8898,3.8959,3.8949,3.9013,3.9065,3.9144,3.9201,3.9266,3.9363,3.9442,3.9488,3.9568,3.9616,3.9616,3.9636,3.9632,3.964,3.9519,3.9494,3.9634,3.9634,3.9634,3.9634,3.9634,3.9634,3.8797,3.8898,3.8916,3.904,3.9077,3.9165,3.9202,3.9252,3.9297,3.9404,3.9469,3.9499,3.9551,3.9634,3.9706,3.9718,3.9746,3.9768,3.9778,3.9664,3.9649,3.9635,3.9612,3.9774,3.9775,3.9893,3.9894,3.9895]},{"header":{"parameterUnit":"m.s-1","parameterCategory":1,"la1":30.2991,"la2":30.254,"lo1":-89.0895,"lo2":-89.0444,"dy":0.0017,"dx":0.0017,"nx":28,"ny":28,"refTime":"2024-06-05T09:00:00:Z","depth":0,"parameterNumber":3,"parameterNumberName":"V-component_of_WINDS"},"data":[0,0,0,0,0,0,0,0,0,0,0,0,0,0,0,0,0,0,0,0,0,0,0,0,0,0,0,0,0,0,0,0,0,0,0,0,0,0,0,0,0,0,0,0,0,0,0,0,0,0,0,0,0,0,0,0,0,0,2.5693,2.5694,0,2.5798,2.5799,2.5801,2.5791,2.5789,2.5788,2.5786,2.5894,2.5898,2.5903,0,0,0,0,0,0,0,0,0,0,0,0,0,2.5481,2.5485,2.5693,2.5694,2.5695,2.5798,2.5799,2.5801,2.5791,2.5789,2.5787,2.5786,2.5893,2.5898,2.5903,0,0,0,0,0,0,0,0,0,0,0,0,0,2.5578,2.5486,2.5692,2.5703,2.5705,2.5798,2.5799,2.5801,2.5792,2.5789,2.5787,2.5785,2.5891,2.5897,2.5904,2.5993,0,0,2.5924,2.5927,0,0,0,0,0,0,0,0,2.5573,2.5586,2.57,2.5702,2.5705,2.5779,2.5764,2.5865,2.5792,2.5759,2.5786,2.5783,2.5858,2.5867,2.5892,2.5998,2.6003,2.5924,2.5928,2.5931,2.5933,0,0,0,0,0,0,0,2.5566,2.5581,2.5734,2.5702,2.5705,2.5702,2.5713,2.5783,2.5821,2.5762,2.5761,2.5774,2.5859,2.5886,2.5894,2.6004,2.5924,2.593,2.5934,2.5937,2.6187,2.6189,0,0,0,0,0,0,2.5557,2.5576,2.5731,2.5737,2.5631,2.5707,2.572,2.5758,2.582,2.5827,2.5776,2.5773,2.5876,2.5887,2.5898,2.6006,2.5931,2.5937,2.5941,2.6184,2.6187,2.619,0,0,0,0,0,0,2.5552,2.5571,2.5727,2.5657,2.5676,2.5714,2.5756,2.5761,2.5788,2.583,2.5837,2.5797,2.5874,2.5889,2.5969,2.601,2.594,2.5946,2.6181,2.6185,2.6189,2.6223,0,0,0,0,0,0,2.5546,2.5569,2.5604,2.5658,2.568,2.5797,2.5759,2.5765,2.58,2.5797,2.5852,2.5859,2.5873,2.5959,2.5976,2.6017,2.5951,2.6177,2.6183,2.6187,2.6218,2.6227,2.6235,0,0,0,0,0,2.5539,2.561,2.5606,2.5625,2.5724,2.5799,2.5812,2.5827,2.5803,2.5838,2.5865,2.5857,2.6002,2.5968,2.5986,2.603,2.6175,2.6181,2.6187,2.6214,2.6226,2.6235,0,0,0,0,0,0,2.5561,2.5617,2.5614,2.5704,2.5747,2.5797,2.5842,2.5839,2.589,2.5885,2.5902,2.5914,2.5995,2.602,2.5981,2.6119,2.6085,2.6095,2.61,2.6111,2.6119,2.6112,2.5957,0,0,0,0,0,2.5576,2.5632,2.5678,2.5753,2.5775,2.5805,2.5838,2.5846,2.5891,2.5909,2.5942,2.5985,2.6041,2.6077,2.613,2.6221,2.6233,2.626,2.6269,2.6276,2.6285,2.6334,2.6346,2.621,2.621,2.621,0,0,2.5608,2.5646,2.568,2.5759,2.5793,2.585,2.582,2.5882,2.5925,2.5918,2.5996,2.6021,2.6071,2.6157,2.6196,2.618,2.6324,2.6284,2.6289,2.6294,2.6341,2.6354,2.6365,2.6214,2.6214,2.6213,0,0,2.5696,2.5731,2.5797,2.5831,2.5883,2.5902,2.5918,2.5968,2.5985,2.6063,2.6059,2.6109,2.6205,2.624,2.627,2.6369,2.6364,2.6386,2.6431,2.6479,2.649,2.6499,2.6534,2.6547,2.6394,2.6394,2.6394,0,2.573,2.5817,2.5831,2.5894,2.5928,2.5924,2.599,2.6023,2.6089,2.6113,2.6094,2.6212,2.6245,2.6339,2.6363,2.6388,2.6405,2.6381,2.6487,2.6497,2.6506,2.6539,2.6553,2.6397,2.6396,2.6396,2.6396,0,2.5855,2.5915,2.5962,2.6026,2.6065,2.6129,2.6153,2.619,2.6194,2.6215,2.6294,2.6333,2.6394,2.6416,2.6421,2.651,2.6498,2.6483,2.645,2.6521,2.6553,2.6566,2.64,2.6399,2.6399,2.6398,0,0,2.5962,2.6032,2.6049,2.6077,2.6133,2.618,2.6243,2.6302,2.6334,2.6379,2.6432,2.6512,2.6497,2.6532,2.654,2.6581,2.6657,2.6561,2.6562,2.6577,2.6756,2.6768,2.6783,2.6653,2.6655,2.6657,2.6752,0,2.6056,2.6169,2.6182,2.6282,2.6337,2.6333,2.6388,2.6427,2.6448,2.6497,2.6519,2.6575,2.6552,2.6573,2.6614,2.6639,2.6693,2.6632,2.6702,2.6704,2.6691,2.68,2.6813,2.69,2.6765,2.6767,2.6768,0,2.6181,2.623,2.6335,2.6382,2.6405,2.6455,2.6509,2.6556,2.66,2.6612,2.665,2.6652,2.6716,2.6679,2.6768,2.6726,2.6755,2.6771,2.6775,2.6783,2.6741,2.6811,2.6929,2.6942,2.6788,2.6787,2.6785,0,2.6248,2.634,2.6415,2.6439,2.6496,2.653,2.6555,2.6597,2.6631,2.6678,2.6701,2.6755,2.6784,2.6826,2.6842,2.6814,2.6929,2.6894,2.6941,2.694,2.6966,2.6965,2.7091,2.6984,2.6984,2.6983,2.6983,0,2.6352,2.6417,2.6445,2.6491,2.6563,2.6577,2.6648,2.6671,2.6708,2.6758,2.6757,2.6804,2.6822,2.6872,2.6885,2.6955,2.6969,2.698,2.6982,2.698,2.6979,2.7,2.6995,2.6987,2.6986,2.6985,2.6985,0,2.6441,2.6462,2.6543,2.659,2.6603,2.6653,2.6693,2.6737,2.6755,2.6818,2.6834,2.6864,2.6921,2.6941,2.7012,2.702,2.7102,2.71,2.7088,2.7089,2.7134,2.713,2.7279,2.73,2.7179,2.718,2.7181,0,2.6506,2.6555,2.6607,2.664,2.6666,2.672,2.6755,2.677,2.6806,2.6859,2.6896,2.6953,2.7,2.7092,2.712,2.7173,2.7172,2.722,2.718,2.7176,2.7173,2.717,2.7174,2.7228,2.723,2.7231,2.7231,0,2.6619,2.6627,2.6677,2.6731,2.6772,2.6815,2.6857,2.6884,2.6905,2.6945,2.7004,2.704,2.7111,2.7168,2.7222,2.7246,2.7243,2.7244,2.7257,2.7256,2.7247,2.7252,2.7109,2.7241,2.724,2.7239,2.7239,2.7238,2.6698,2.6742,2.6784,2.684,2.6872,2.6911,2.6954,2.6978,2.7027,2.7086,2.7092,2.7155,2.7196,2.7268,2.7296,2.7345,2.7331,2.7351,2.7356,2.7361,2.7364,2.7238,2.7355,2.7354,2.7354,2.7354,2.7354,0,2.6812,2.6839,2.6889,2.6947,2.699,2.6982,2.7027,2.7064,2.712,2.7158,2.7204,2.7271,2.7325,2.7356,2.741,2.7444,2.7443,2.7457,2.7455,2.7461,2.7373,2.7356,2.7457,2.7457,2.7457,2.7457,2.7457,2.7457,2.6876,2.6949,2.6962,2.705,2.7076,2.7138,2.7164,2.7199,2.723,2.7305,2.735,2.737,2.7405,2.7461,2.751,2.7518,2.7538,2.7554,2.756,2.7478,2.7467,2.7457,2.7441,2.7558,2.7558,2.7644,2.7644,2.7645]}]]